Location: ??????????
(54.8537°N, 38.8755°E)
Time: 00:34:09
(UTC+00:00)

Tiros 1 - Pass Details

Date: 21 September 2024
Orbit: 623 x 654 km, 48.4° (Epoch: 15 October)

Event Time Altitude Azimuth Distance (km) Brightness Sun altitude
Rises 10:29:23 0° 203° (SSW) 2,891 11.6 33.6°
Reaches altitude 10° 10:32:35 10° 180° (S) 1,987 10.8 33.4°
Maximum altitude 10:35:06 15° 146° (SE) 1,697 9.9 33.3°
Drops below altitude 10° 10:37:38 10° 112° (ESE) 1,993 9.7 33.1°
Sets 10:40:50 0° 89° (E) 2,905 10.3 32.9°
